FENGYUN 1C DEB, 31937

Orbit data source: Space-Track

FENGYUN 1C DEB, 31937 is space debris in SSO originally from a launch on Mon, 10 May 1999 UTC launched from the Taiyaun Space Center, China (TSC). Fengyun 1C debris stems from the Chinese weather satellite Fengyun-1C, which was intentionally destroyed by a Chinese anti-satellite missile in 2007. This event dramatically increased the amount of space debris, with thousands of trackable fragments posing hazards to satellites and human spaceflight. The Fengyun 1C debris cloud has become a focal point in discussions about space sustainability and the need for international regulations to prevent the creation of new debris.

Loading next visibility...
Identifier
31937, 1999-025CMN
Orbit
SSO
Country
Flag of CNCN / PRC
Related business
Manufacturer
Unknown
Mission
Spacecraft
Bus & Motor
Unknown
Mass
Unknown
Launch date (UTC)
1999-05-10 (27 years ago)
Launch vehicle
Unknown
Launch site
Taiyaun Space Center, China (TSC)
Object type
Payload
Rocket body
Debris
Shape & HBR
Unknown shape, 0.1 m
Radar Cross Section
Small (<0.1 m²)

Expand to show TLE details & history
Last TLE update: 1 week ago

TLE from 1 week ago
0 FENGYUN 1C DEB
1 31937U 99025CMN 26248.16983616  .00005335  00000-0  55435-3 0  9991
2 31937  99.2700  23.5153 0153036 184.5686 175.4136 14.82146439700115
Epoch: 2026-09-05T04:04Z
TLE epoch observation values (Epoch: 2026-09-05T04:04:33.844Z)
Latitude
-0.00001°
Longitude
-21.90887°
Altitude
732.363 km
Speed
7.432 km/s
True Right ascension
01h 34m 03s
True Declination
0° 00' 00"
Sunlit
Object was in full shadow at epoch
Visualization orbit readout
Latitude
Unknown
Longitude
Unknown
Altitude
Unknown
Speed
Unknown
Apparent Right ascension
Unknown
Apparent Declination
Unknown
Sunlit
N/A
Visualization observer readout
Local Sidereal Time
13:33:39
Azimuth
Unknown
Elevation
Unknown
Doppler factor
Unknown
Orbital elements
Apogee altitude
726.752 km
Perigee altitude
512.569 km
Semi-major axis
6,997.798 km
Eccentricity
0.0153
Inclination
99.27°
RAAN
23.5153°
Arg. of periapsis
184.5686°
True anomaly
175.5512°
Mean anomaly
175.4136°
Eccentric anomaly
175.48266°
Mean motion
3.70767 °/min
Orbital period
97.1 mins
BSTAR
0.00055435
Loading maneuver chart data...
Computing Atmospheric mass density...

Documentation

Showing up to 5 results
|